Weather History for Cape Race, NL

Change the Weather History Date:

Wednesday, November 7, 2012

  Actual Average Record
Temperature  
Mean Temperature 40 °F -  
Max Temperature 46 °F - - ()
Min Temperature 33 °F - - ()
Degree Days  
Heating Degree Days 26    
Moisture  
Dew Point 35 °F    
Average Humidity 77    
Maximum Humidity 94    
Minimum Humidity 52    
Precipitation  
Precipitation 0.24 in - - ()
Sea Level Pressure  
Sea Level Pressure 30.26 in    
Wind  
Wind Speed 9 mph ()    
Max Wind Speed 23 mph    
Max Gust Speed 31 mph    
T = Trace of Precipitation, MM = Missing Value Source: Averaged Metar Reports

Daily Weather History Graph

Daily Weather History Graph

Search for Another Location

Airport:

Trip Planner

Search our weather history database for the weather conditions in past years. The results will help you decide how hot, cold, wet, or windy it might be!

Date:

Astronomy

Nov. 07, 2012 Rise Set
Actual Time 6:53 AM NST 4:37 PM NST
Civil Twilight 6:21 AM NST 5:09 PM NST
Nautical Twilight 5:45 AM NST 5:46 PM NST
Astronomical Twilight 5:09 AM NST 6:21 PM NST
Moon No Moon Rise 1:06 PM NST (11/7)
Length of Visible Light 10h 48m
Length of Day
9h 44m
Last Quarter, 44% of the Moon is Illuminated
Nov 7
Last Quarter
Nov 13
New
Nov 20
First Quarter
Nov 28
Full
Dec 6
Last Quarter

Hourly Weather History & Observations

Time (NST) Temp. Windchill Dew Point Humidity Pressure Visibility Wind Dir Wind Speed Gust Speed Precip Events Conditions
12:30 AM 38.1 °F 31.7 °F 33.1 °F 82% 30.17 in - West 9.2 mph - N/A   Unknown
1:30 AM 36.5 °F 29.2 °F 33.1 °F 87% 30.19 in - West 10.4 mph - N/A   Unknown
2:30 AM 39 °F - 35 °F 78% 30.19 in - West 8.1 mph - -  
2:30 AM 38.7 °F 32.9 °F 34.5 °F 85% 30.19 in - West 8.1 mph - N/A   Unknown
3:30 AM 39.0 °F 34.8 °F 35.8 °F 88% 30.20 in - West 5.8 mph - N/A   Unknown
4:30 AM 36.0 °F 30.3 °F 33.4 °F 91% 30.20 in - WNW 6.9 mph - N/A   Unknown
5:30 AM 36 °F - 34 °F 91% 30.22 in - WNW 9.2 mph - -  
5:30 AM 36.0 °F 29.0 °F 34.3 °F 94% 30.22 in - WNW 9.2 mph - N/A   Unknown
6:30 AM 37.6 °F 31.6 °F 35.1 °F 91% 30.22 in - WNW 8.1 mph - N/A   Unknown
7:30 AM 38.3 °F 31.9 °F 35.2 °F 89% 30.23 in - WNW 9.2 mph - N/A   Unknown
8:30 AM 42 °F - 36 °F 72% 30.26 in - West 11.5 mph - -  
8:30 AM 42.4 °F 36.1 °F 36.0 °F 78% 30.26 in - West 11.5 mph - N/A   Unknown
9:30 AM 44.4 °F 38.2 °F 33.8 °F 66% 30.26 in - WSW 12.7 mph - N/A   Unknown
10:30 AM 44.1 °F 38.1 °F 34.9 °F 70% 30.28 in - West 11.5 mph - N/A   Unknown
11:30 AM 45 °F - 36 °F 61% 30.27 in - NW 9.2 mph - -  
11:30 AM 45.0 °F 40.1 °F 35.8 °F 70% 30.27 in - NW 9.2 mph - N/A   Unknown
12:30 PM 45.7 °F 41.0 °F 33.3 °F 62% 30.27 in - West 9.2 mph - N/A   Unknown
1:30 PM 45.7 °F 40.2 °F 33.6 °F 63% 30.28 in - West 11.5 mph - N/A   Unknown
2:30 PM 45 °F - 33 °F 52% 30.28 in - West 10.4 mph - -  
2:30 PM 45.3 °F 40.1 °F 33.3 °F 63% 30.28 in - West 10.4 mph - N/A   Unknown
3:30 PM 43.9 °F 39.9 °F 34.5 °F 70% 30.30 in - NW 6.9 mph - N/A   Unknown
4:30 PM 42.6 °F 40.9 °F 35.2 °F 75% 30.32 in - NW 3.5 mph - N/A   Unknown
5:30 PM 41 °F - 35 °F 72% 30.32 in - North 2.3 mph - -  
5:30 PM 41.2 °F - 35.1 °F 79% 30.32 in - North 2.3 mph - N/A   Unknown
6:30 PM 42.4 °F - 35.8 °F 77% 30.33 in - ENE 2.3 mph - N/A   Unknown
7:30 PM 41.4 °F 39.4 °F 36.1 °F 82% 30.34 in - NNE 3.5 mph - N/A   Unknown
8:30 PM 43 °F - 36 °F 67% 30.33 in - East 11.5 mph - -  
8:30 PM 43.3 °F 37.2 °F 35.8 °F 75% 30.33 in - East 11.5 mph - N/A   Unknown
9:30 PM 43.0 °F 35.7 °F 37.6 °F 81% 30.31 in - East 15.0 mph - N/A   Unknown
10:30 PM 42.6 °F 33.8 °F 39.0 °F 87% 30.27 in - East 20.7 mph - N/A   Unknown
11:30 PM 42 °F - 38 °F 83% 30.25 in - East 23.0 mph - -  
11:30 PM 41.7 °F 32.1 °F 38.5 °F 88% 30.25 in - East 23.0 mph 31.1 mph 0.03 in   Unknown